{"data":{"norad_id":62229,"intl_designator":"2024-231M","name":"STARLINK-11485 [DTC]","alt_names":[],"object_type":"PAYLOAD","status":"ACTIVE","operator":null,"country":"US","launch_date":"2024-12-05","launch_site_code":"AFWTR","launch_vehicle":null,"mission":null,"orbit_class":"UNKNOWN","rcs_meters":null,"size_class":null,"mass_kg":null,"dimensions":null,"purposes":["comms"],"wikipedia_slug":null,"has_3d_model":false,"image_url":null,"decayed_at":null,"tle_current":{"epoch":"2026-05-25T02:20:42.563040Z","epoch_age_seconds":59938,"freshness":"FRESH","line1":"1 62229U 24231M   26145.09771485  .00168426  00000+0  13663-2 0  9999","line2":"2 62229  53.1581  84.4970 0001118  66.4395 293.6740 15.69722867 85414","mean_motion":15.69722867,"eccentricity":0.0001118,"inclination_deg":53.1581,"raan_deg":84.497,"arg_perigee_deg":66.4395,"mean_anomaly_deg":293.674,"bstar":0.0013663,"rev_number":8541,"period_min":91.735938252086,"perigee_km":358.93664119172,"apogee_km":360.44321929332,"semimajor_km":6737.8269302425,"source":"CELESTRAK","updated_at":"2026-05-25T13:38:19.615339Z"}}}